Wind_Speed
31 30 29 29 28 28 28 28 28 29 29 30 30 31 32 32 33 34 35 35 36 36 37 37 37 38 38 39 39 39 40 40 40 40 40 41 41 41 41 42 42 43 43
33 32 31 31 30 30 30 30 30 31 31 32 32 33 33 33 34 36 36 37 37 37 37 38 38 38 38 39 39 40 40 40 40 40 40 40 40 41 42 42 43 43 43
35 34 33 33 32 31 31 31 31 32 33 33 34 34 34 35 36 37 37 37 37 37 38 38 39 39 39 39 39 39 39 40 40 41 41 41 41 41 41 42 43 44 44
37 36 35 34 33 33 33 33 33 33 34 34 34 34 35 36 37 37 37 37 37 38 38 39 39 38 38 39 39 39 39 40 40 41 41 42 42 42 42 43 44 44 45
38 37 36 35 34 34 34 34 34 34 34 35 35 35 36 36 37 37 37 37 38 38 38 38 38 38 38 38 39 39 39 40 40 41 42 42 43 43 43 43 44 44 45
38 37 37 36 35 35 35 35 35 35 35 35 36 36 36 37 37 37 37 37 38 37 37 37 38 38 38 38 39 39 39 40 41 42 43 43 43 44 44 44 45 45 45
39 38 37 37 36 36 36 36 36 36 36 36 36 37 37 37 37 37 37 37 37 37 37 37 37 37 38 38 38 39 39 40 41 42 43 43 44 45 45 46 46 46 46
38 38 37 37 36 36 36 36 36 36 36 36 36 36 36 36 36 36 36 36 36 36 37 37 37 37 38 38 38 39 39 41 42 42 43 44 45 46 47 47 48 48 48
37 37 37 37 37 36 36 36 36 36 36 36 36 36 35 35 36 36 36 36 36 36 37 36 37 37 37 37 38 39 40 41 42 43 44 45 46 47 48 49 50 51 51
37 37 37 37 37 37 36 36 36 35 35 35 35 35 35 35 35 35 35 35 35 36 36 36 36 37 37 38 38 39 40 41 42 44 45 46 47 48 49 51 52 53 54
37 37 37 37 36 36 36 36 35 35 35 34 34 34 34 34 34 35 35 35 35 35 35 35 36 36 37 37 38 39 40 42 43 44 45 47 48 49 51 52 54 55 56
36 36 36 35 35 35 35 35 34 34 33 33 33 33 33 33 33 34 34 34 34 35 35 35 35 36 36 37 38 39 41 42 44 45 46 48 49 50 52 53 55 56 57
35 34 34 35 34 34 34 33 33 33 32 32 32 32 32 32 32 32 32 33 33 33 34 34 35 36 37 38 39 40 42 43 44 46 47 49 50 52 53 54 56 57 59
33 33 34 34 34 33 32 32 32 31 31 31 31 31 31 31 31 31 32 32 33 33 33 34 35 36 37 38 40 41 43 44 45 47 49 50 52 53 54 56 57 59 61
33 33 33 33 32 32 31 31 30 30 30 30 30 30 30 30 30 31 31 32 32 33 34 35 36 37 38 39 40 42 43 45 46 48 49 51 52 54 55 57 59 61 63
32 32 32 32 31 31 30 30 29 29 29 29 29 29 30 30 30 31 31 31 32 33 34 35 36 37 38 40 41 43 44 45 47 48 50 51 53 55 57 59 61 63 65
33 32 32 31 30 30 29 29 29 29 29 29 29 29 29 30 30 31 31 32 33 34 35 36 37 38 39 40 42 43 44 46 47 49 50 52 55 56 58 60 62 64 67
32 32 32 31 30 29 29 28 28 28 28 28 28 29 29 30 30 31 32 33 33 34 34 36 37 38 39 41 42 43 45 47 48 49 51 54 56 57 59 61 64 66 68
33 33 33 31 30 29 29 28 28 28 28 28 28 29 29 30 30 31 32 33 33 34 35 36 37 38 40 41 43 44 46 47 49 51 53 55 57 59 61 63 65 66 67
35 34 32 31 30 29 29 28 28 27 28 28 29 29 29 30 31 31 32 32 33 34 35 36 37 39 40 41 43 45 46 48 50 52 54 56 59 61 63 65 66 67 67
35 33 32 31 30 29 29 28 28 28 28 29 29 30 30 31 31 31 32 33 33 34 35 36 38 39 40 42 44 46 47 49 51 53 56 58 61 63 64 65 67 68 68
34 33 32 31 30 29 29 28 28 28 29 29 30 30 30 30 30 31 32 33 34 34 35 36 38 39 41 42 44 46 48 50 53 55 58 60 62 63 64 66 67 67 66
33 32 31 30 30 29 28 28 28 28 28 29 29 30 30 30 31 31 32 33 33 34 35 36 38 39 41 43 45 48 50 52 55 57 59 61 62 63 65 65 65 65 65
32 32 31 30 30 29 28 28 28 28 28 28 28 29 30 30 30 31 32 32 33 34 35 37 38 40 41 44 46 49 51 54 56 58 60 61 62 63 64 64 63 63 62
32 31 31 30 29 29 28 28 28 28 28 28 28 29 29 30 31 31 32 32 33 34 36 37 39 41 43 45 48 50 53 55 57 59 60 61 61 63 63 62 61 59 58
31 30 30 29 29 28 28 28 27 27 27 28 29 29 30 30 31 31 32 33 34 35 37 38 40 42 44 46 49 52 54 56 58 59 60 60 61 61 61 59 58 56 54
Wind_Direction
236 239 241 244 246 250 253 257 261 264 268 271 274 277 279 281 284 286 288 289 290 291 293 294 295 296 296 297 297 298 299 299 300 301 302 302 302 303 303 303 303 304 304
240 241 244 247 249 252 256 259 262 264 268 271 274 276 278 280 283 286 287 288 289 291 292 293 295 296 296 297 297 298 298 299 300 301 302 303 303 304 304 304 305 305 305
243 245 247 249 251 255 258 260 262 265 268 271 273 275 277 280 282 284 285 287 288 290 291 293 294 295 296 296 297 298 298 299 300 300 302 303 303 304 305 305 305 306 306
245 247 249 251 253 256 258 260 263 265 267 270 272 274 277 279 281 282 284 286 287 289 291 292 294 295 296 296 297 297 298 299 300 301 302 303 304 304 305 305 305 306 306
245 247 249 252 254 256 258 261 263 265 267 269 271 274 276 278 280 281 283 285 287 289 290 292 293 294 295 296 297 297 298 299 300 301 302 303 304 304 305 306 306 306 307
245 247 249 252 255 257 259 262 264 266 268 270 272 274 276 277 279 280 282 284 287 289 290 292 293 294 295 296 297 297 298 299 300 301 302 303 304 305 305 306 306 306 307
245 248 250 253 255 257 260 262 264 266 267 269 272 274 276 277 278 280 282 284 286 288 290 292 293 294 295 296 296 297 298 299 300 301 302 303 303 304 305 306 306 306 307
245 248 250 252 255 257 259 261 263 265 267 269 272 274 275 276 278 280 282 284 286 288 290 292 293 294 295 296 297 297 298 299 300 301 302 303 303 304 305 306 306 306 306
245 248 250 252 254 256 258 260 262 265 267 269 271 273 275 276 277 279 282 285 287 289 290 292 293 294 295 296 297 297 298 299 300 301 302 303 303 304 304 305 305 306 306
245 247 250 252 254 256 258 259 262 264 267 269 271 272 274 275 277 280 282 285 287 288 290 292 293 294 295 296 297 298 298 299 300 301 302 303 303 304 305 305 306 306 306
245 247 250 252 254 256 257 259 262 264 266 268 270 272 273 275 278 280 283 285 286 288 290 291 293 294 295 296 297 298 298 300 301 302 303 303 304 304 305 305 306 306 306
244 246 249 251 253 255 257 259 261 263 265 267 269 271 273 275 278 280 283 284 286 288 290 292 293 294 295 296 298 298 299 301 301 302 303 303 304 305 305 305 306 306 306
242 245 248 250 252 255 257 259 261 263 265 266 268 270 273 275 278 280 282 285 287 288 290 292 294 295 296 297 298 299 300 301 301 302 303 304 305 305 305 306 306 306 306
241 243 247 250 252 255 257 259 261 262 264 266 268 271 273 276 279 281 283 285 287 288 290 292 295 296 297 298 299 300 301 302 302 303 304 304 305 305 306 306 307 307 307
238 241 245 248 252 254 256 258 260 262 264 266 268 271 274 277 280 282 284 286 287 289 291 293 295 297 298 299 300 301 302 303 303 304 304 305 305 306 306 307 307 307 307
237 241 244 247 250 252 255 257 260 262 264 266 269 272 275 278 280 283 285 286 288 290 292 294 296 298 299 300 301 302 303 304 304 304 305 306 307 307 307 307 308 308 308
237 240 244 246 249 251 254 256 259 261 264 267 270 273 276 279 281 283 285 287 289 291 294 296 297 299 300 301 302 303 304 305 305 306 306 307 308 308 308 308 309 309 309
236 240 243 245 248 251 254 256 259 262 264 268 271 275 278 281 283 284 286 288 290 293 295 296 298 299 300 302 303 304 306 306 306 307 308 308 309 309 309 309 309 310 310
235 238 242 244 247 250 253 255 258 262 265 269 272 276 279 281 283 285 287 289 291 293 296 297 298 300 301 303 305 306 307 307 307 308 309 310 310 310 309 310 310 311 310
236 238 241 243 246 249 251 254 258 262 266 270 273 276 279 281 284 286 288 289 291 294 296 298 299 301 303 305 306 307 308 309 309 310 311 311 311 311 311 311 311 311 311
236 237 240 243 245 248 251 255 258 262 266 270 274 277 279 282 284 286 288 290 293 295 297 298 301 302 304 306 307 309 310 310 310 311 311 311 312 312 312 312 312 312 312
234 236 239 243 246 249 252 255 259 263 267 270 273 276 279 282 284 286 289 291 293 295 297 300 302 304 305 307 309 310 311 312 312 313 313 313 313 313 313 313 313 313 313
233 235 239 242 245 248 252 256 261 264 268 271 274 277 280 282 284 287 290 292 294 296 298 301 303 305 307 309 311 312 312 313 313 314 314 314 314 314 314 314 314 314 314
233 235 238 242 245 248 252 258 262 265 268 272 274 277 280 282 285 288 290 293 295 297 300 302 304 307 308 310 312 313 314 314 315 315 315 315 315 315 315 315 315 315 316
232 236 239 242 245 249 253 258 262 265 269 272 275 278 280 283 286 288 291 293 295 298 301 303 305 308 310 311 313 315 316 316 316 316 317 317 317 317 317 317 317 317 318
233 236 238 241 246 249 254 258 261 265 268 272 275 278 281 284 287 289 291 294 297 299 302 304 307 309 311 313 315 317 318 318 318 318 318 318 318 318 318 318 318 319 319
Height
5790 5793 5796 5798 5800 5802 5803 5804 5805 5805 5805 5806 5805 5805 5804 5803 5802 5800 5799 5797 5795 5793 5791 5788 5786 5783 5780 5777 5775 5772 5769 5766 5763 5760 5756 5753 5749 5746 5742 5738 5735 5731 5727
5783 5786 5789 5791 5793 5795 5796 5797 5798 5798 5799 5799 5798 5798 5797 5796 5795 5793 5791 5789 5788 5785 5783 5781 5778 5776 5773 5770 5767 5764 5761 5758 5755 5752 5749 5746 5742 5738 5734 5730 5726 5723 5719
5775 5778 5781 5783 5785 5787 5789 5790 5791 5791 5791 5791 5791 5790 5790 5789 5787 5785 5784 5782 5780 5778 5776 5773 5771 5768 5765 5763 5760 5757 5754 5751 5747 5744 5741 5737 5734 5731 5727 5722 5718 5714 5710
5767 5770 5773 5775 5778 5780 5781 5782 5783 5784 5784 5783 5783 5783 5782 5781 5780 5778 5776 5774 5772 5770 5768 5765 5763 5760 5758 5755 5752 5749 5746 5743 5739 5736 5732 5729 5725 5722 5719 5715 5710 5705 5701
5759 5762 5765 5767 5769 5771 5773 5774 5775 5776 5776 5776 5776 5775 5775 5773 5772 5770 5769 5767 5765 5763 5760 5758 5755 5753 5750 5747 5744 5741 5738 5735 5731 5728 5724 5721 5717 5713 5709 5706 5702 5697 5691
5750 5753 5756 5759 5761 5763 5765 5766 5767 5768 5768 5768 5768 5767 5766 5765 5764 5762 5760 5759 5757 5755 5752 5750 5748 5745 5742 5740 5737 5734 5730 5727 5723 5720 5716 5712 5708 5704 5700 5697 5693 5688 5683
5741 5745 5747 5750 5753 5755 5756 5758 5759 5759 5759 5759 5759 5759 5758 5757 5756 5754 5753 5751 5749 5747 5744 5742 5740 5737 5735 5732 5729 5726 5722 5719 5715 5711 5707 5704 5699 5695 5691 5687 5683 5678 5674
5733 5736 5739 5742 5744 5746 5748 5749 5750 5751 5751 5751 5751 5751 5750 5749 5747 5746 5744 5743 5741 5739 5737 5734 5732 5729 5727 5724 5721 5718 5714 5711 5707 5703 5699 5695 5690 5686 5681 5677 5672 5668 5664
5724 5727 5730 5733 5735 5737 5739 5740 5741 5742 5743 5743 5742 5742 5741 5740 5739 5738 5736 5734 5733 5731 5729 5726 5724 5721 5719 5716 5713 5710 5706 5702 5699 5694 5690 5686 5681 5676 5671 5666 5661 5657 5652
5715 5718 5721 5724 5726 5728 5730 5731 5732 5733 5734 5734 5734 5733 5733 5732 5731 5730 5728 5726 5725 5723 5721 5718 5716 5714 5711 5708 5705 5701 5698 5694 5690 5686 5681 5677 5672 5666 5661 5655 5650 5644 5639
5706 5709 5712 5715 5717 5719 5721 5722 5724 5724 5725 5725 5725 5725 5724 5724 5723 5722 5720 5719 5717 5715 5713 5711 5708 5706 5703 5700 5697 5693 5689 5685 5681 5677 5672 5667 5662 5656 5650 5644 5638 5632 5626
5698 5701 5704 5706 5708 5710 5712 5714 5715 5716 5716 5717 5717 5716 5716 5716 5715 5714 5712 5711 5709 5707 5705 5703 5700 5698 5695 5692 5688 5685 5681 5677 5672 5667 5662 5657 5651 5646 5639 5633 5627 5620 5614
5690 5693 5695 5697 5700 5702 5704 5705 5706 5707 5708 5708 5708 5708 5708 5708 5707 5706 5705 5703 5701 5700 5697 5695 5693 5690 5687 5683 5680 5676 5672 5668 5663 5658 5652 5646 5641 5634 5628 5621 5614 5608 5600
5682 5684 5687 5689 5691 5694 5695 5697 5698 5699 5700 5700 5700 5701 5700 5700 5699 5698 5697 5695 5694 5692 5690 5687 5685 5682 5678 5675 5671 5667 5663 5658 5653 5648 5642 5636 5629 5623 5616 5609 5602 5595 5587
5674 5676 5679 5681 5684 5686 5687 5689 5690 5691 5692 5692 5693 5693 5693 5692 5691 5690 5689 5688 5686 5684 5682 5679 5676 5673 5670 5666 5662 5658 5653 5649 5643 5637 5631 5625 5618 5611 5604 5597 5589 5581 5573
5666 5669 5671 5674 5676 5678 5679 5681 5682 5683 5684 5685 5685 5685 5685 5685 5684 5683 5681 5680 5678 5676 5674 5671 5668 5665 5661 5657 5653 5649 5644 5639 5633 5627 5620 5614 5607 5600 5592 5584 5575 5567 5558
5658 5661 5663 5666 5668 5670 5672 5674 5675 5676 5677 5677 5678 5678 5677 5677 5676 5675 5673 5672 5670 5668 5665 5662 5659 5656 5652 5648 5644 5639 5634 5629 5622 5616 5610 5603 5595 5587 5579 5571 5562 5552 5542
5649 5652 5655 5658 5660 5662 5664 5666 5667 5668 5669 5670 5670 5670 5669 5669 5668 5667 5665 5664 5662 5659 5657 5654 5651 5647 5643 5639 5635 5630 5625 5618 5612 5605 5599 5591 5583 5575 5567 5559 5549 5539 5528
5641 5644 5647 5650 5652 5655 5657 5659 5660 5661 5662 5662 5662 5662 5662 5661 5660 5659 5657 5655 5653 5651 5648 5645 5642 5638 5634 5630 5625 5620 5614 5608 5601 5594 5587 5579 5571 5563 5554 5545 5536 5526 5514
5632 5635 5639 5642 5645 5648 5650 5652 5653 5654 5654 5655 5655 5654 5654 5653 5652 5651 5649 5647 5645 5643 5640 5637 5633 5630 5625 5621 5616 5610 5605 5598 5591 5584 5575 5567 5558 5549 5539 5530 5520 5510 5500
5624 5628 5631 5635 5638 5640 5642 5644 5645 5646 5647 5647 5647 5647 5646 5645 5644 5643 5641 5639 5637 5634 5631 5628 5625 5621 5616 5611 5606 5600 5594 5587 5580 5572 5563 5554 5545 5535 5525 5515 5505 5494 5484
5617 5620 5624 5627 5630 5633 5635 5636 5637 5638 5639 5639 5639 5639 5638 5637 5636 5635 5633 5631 5628 5626 5622 5619 5615 5611 5607 5602 5596 5590 5583 5575 5568 5560 5551 5541 5531 5521 5511 5500 5489 5478 5468
5609 5613 5616 5619 5622 5625 5627 5628 5630 5630 5631 5631 5631 5631 5630 5629 5628 5626 5624 5622 5620 5617 5614 5610 5606 5602 5597 5592 5586 5579 5572 5564 5556 5547 5538 5528 5518 5507 5496 5485 5474 5464 5454
5601 5605 5609 5612 5614 5617 5619 5621 5622 5622 5623 5623 5623 5623 5622 5621 5620 5618 5616 5614 5611 5608 5605 5601 5597 5593 5587 5582 5576 5569 5561 5553 5544 5535 5525 5515 5504 5493 5482 5471 5461 5450 5440
5594 5598 5601 5604 5607 5609 5611 5613 5614 5615 5615 5615 5615 5615 5614 5613 5611 5610 5608 5605 5603 5600 5596 5592 5588 5583 5578 5572 5565 5558 5550 5541 5532 5522 5512 5502 5491 5480 5469 5458 5448 5438 5428
5587 5590 5594 5597 5599 5601 5603 5605 5606 5607 5607 5607 5607 5607 5606 5605 5603 5601 5599 5596 5594 5591 5587 5583 5579 5573 5568 5561 5554 5546 5538 5529 5519 5510 5500 5489 5478 5467 5457 5446 5436 5427 5418